Theta_e
365 366 364 365 364 365 364 363 359 359 363 357 357 360 359 362 365 361 360 364 363 365 368 372 371 371 366 372 372 371 370 372 374 370 375 376 367 362 353 358 360 364
364 364 366 363 367 367 370 364 362 362 365 367 364 363 368 365 362 365 365 364 365 362 369 366 369 371 371 367 368 370 374 374 367 361 366 368 369 364 357 363 359 364
361 361 360 358 357 361 358 362 364 362 360 360 362 370 363 364 363 369 369 367 361 359 368 369 369 371 368 371 371 369 365 373 368 363 376 371 368 370 366 355 358 356
365 362 359 358 358 358 358 360 362 363 361 361 359 361 361 356 364 362 369 366 366 368 362 365 366 363 366 367 371 371 368 371 368 374 373 372 370 365 365 365 361 359
361 362 359 357 359 362 359 357 355 356 357 360 357 362 366 371 364 361 364 365 369 364 365 367 367 365 368 370 369 368 367 365 369 373 369 370 371 370 357 363 363 364
362 365 366 361 363 362 356 357 357 353 356 356 357 357 357 364 360 361 360 357 358 357 357 359 361 362 361 368 369 368 365 360 364 371 369 368 363 364 356 364 365 362
357 361 360 359 359 359 357 358 358 360 354 357 360 359 358 361 360 362 361 359 356 359 356 361 366 365 364 369 368 369 369 370 366 372 370 369 370 365 360 364 367 367
356 357 360 359 358 357 358 357 357 359 360 360 354 359 359 358 360 357 360 359 355 357 361 361 366 371 358 364 367 368 364 359 361 371 373 370 370 370 369 361 365 364
357 357 357 358 357 359 355 358 357 357 361 359 355 354 359 360 358 356 365 364 364 366 370 367 371 365 365 365 366 368 366 360 357 364 365 362 362 365 362 367 364 366
355 356 354 354 354 356 355 356 357 357 359 357 356 358 354 362 362 360 363 368 363 367 368 369 368 367 363 364 367 369 368 368 368 368 365 364 363 362 361 363 361 363
351 351 352 353 353 354 355 355 356 356 357 356 356 356 361 356 361 361 369 367 357 361 366 366 365 366 366 360 363 366 366 362 364 367 365 367 365 367 364 367 366 364
351 349 349 350 350 351 352 354 355 355 356 357 358 357 359 357 356 357 360 365 364 363 365 368 367 367 368 367 360 362 362 362 366 367 364 363 362 360 361 363 360 363
356 353 351 348 349 349 349 350 353 354 356 355 356 357 355 355 356 359 362 360 365 361 360 366 367 362 370 370 367 363 365 364 360 360 362 362 361 359 357 358 358 357
358 357 351 351 351 355 353 348 349 354 354 356 358 357 354 354 354 353 355 361 361 359 364 365 368 366 370 372 368 362 367 363 362 361 360 361 360 358 358 356 356 355
358 358 360 364 358 356 353 354 351 354 356 356 357 355 354 354 354 354 354 357 359 362 361 360 361 364 365 367 368 370 367 364 363 362 361 361 360 358 358 357 354 351
362 361 361 364 362 363 361 355 352 352 355 353 354 353 354 356 355 355 354 355 356 361 360 357 359 360 366 368 370 370 367 365 363 368 365 362 362 361 356 356 356 353
365 365 365 363 367 371 366 362 364 365 363 363 354 352 353 361 356 350 352 353 353 355 356 353 355 345 338 336 342 354 365 366 365 369 365 364 359 363 363 359 355 353
350 349 356 360 360 359 361 368 367 368 369 367 364 354 367 355 353 357 359 352 349 356 354 353 343 333 329 332 337 337 349 364 359 358 358 359 357 356 357 355 352 350
349 350 347 344 346 346 346 352 354 360 361 364 363 364 356 363 366 362 359 358 353 358 353 348 341 328 328 331 332 332 336 353 357 357 353 351 352 353 354 356 358 361
349 347 344 347 349 345 344 346 351 353 357 359 357 361 363 363 355 358 359 366 365 355 348 342 335 324 323 326 327 328 333 342 354 354 353 352 354 351 351 357 357 358
348 343 345 348 349 346 343 344 348 351 353 353 356 356 351 348 345 347 350 352 352 348 340 332 324 318 319 321 322 324 330 344 356 354 351 351 351 357 359 362 362 360
349 346 345 348 350 348 347 347 349 351 354 357 358 356 353 347 350 351 351 353 351 342 338 332 325 316 316 317 319 321 328 357 363 358 355 356 359 359 358 359 356 357
347 348 348 349 351 350 350 352 355 357 359 357 357 355 348 345 344 346 349 350 347 341 333 330 327 318 314 314 316 317 340 360 361 362 362 359 357 356 354 351 351 349
350 351 353 352 351 350 350 355 356 356 354 355 355 351 345 344 345 345 346 345 342 336 332 329 326 318 312 312 314 316 335 355 360 362 358 356 355 355 354 351 351 354
351 349 352 350 348 345 346 351 353 351 351 353 352 350 346 345 347 343 340 340 340 338 336 330 326 322 312 312 312 314 332 355 360 357 353 351 351 352 353 352 345 345
350 348 349 347 347 347 347 348 350 348 348 348 349 348 347 346 346 341 338 338 337 336 334 330 326 323 318 311 311 313 320 346 347 349 347 348 351 350 351 351 347 343
Wind_Speed
7 6 7 5 5 4 5 6 5 6 4 6 6 5 5 6 5 8 6 7 6 4 4 3 3 3 3 2 3 2 1 2 2 3 2 0 2 2 2 1 2 3
7 7 6 6 4 4 3 5 5 5 4 4 5 5 4 4 4 3 4 6 5 5 5 5 4 3 3 4 3 3 3 3 3 4 3 3 2 2 3 1 2 2
9 8 9 8 8 8 8 6 4 5 5 5 4 3 5 4 6 4 4 4 5 6 5 4 4 4 3 2 3 3 3 2 3 2 2 1 2 1 3 3 2 2
8 8 8 8 7 9 8 7 5 5 6 5 6 6 6 7 5 6 4 5 4 3 6 5 5 5 4 3 3 3 3 2 2 2 2 2 2 3 2 3 4 3
10 8 7 8 7 6 6 6 8 8 7 6 7 5 4 3 5 6 4 4 4 4 5 4 4 4 5 3 4 3 3 3 3 2 1 2 2 2 4 3 2 2
8 7 6 6 8 6 8 8 7 8 7 8 7 7 6 5 5 6 6 7 7 6 7 6 6 5 5 4 3 3 3 4 3 3 2 2 3 3 3 4 4 0
11 9 9 9 9 9 8 8 7 6 7 7 5 6 6 8 6 5 6 7 7 5 6 6 4 4 4 4 4 3 2 2 1 2 2 2 3 3 4 3 4 2
12 10 10 8 10 10 8 7 7 5 5 5 8 6 6 8 7 6 5 5 6 5 4 4 3 3 4 3 3 3 4 4 5 3 3 3 2 2 2 4 3 1
10 11 10 10 11 8 11 8 7 7 5 5 6 8 6 5 6 7 5 5 3 3 2 3 2 3 3 3 4 4 4 4 4 5 5 4 4 4 4 3 4 3
10 10 12 12 11 10 12 10 8 7 6 7 6 1 6 4 4 5 6 4 4 3 3 3 4 5 4 4 3 3 3 3 3 2 2 3 4 4 4 4 4 4
12 12 11 11 11 10 11 10 9 8 6 8 7 6 2 5 7 5 3 4 6 6 5 5 5 5 4 5 4 4 4 4 3 3 4 3 4 3 4 3 3 3
10 11 12 12 12 11 11 10 9 8 8 7 6 4 4 4 6 6 5 5 4 5 6 4 4 4 4 4 4 3 4 4 3 2 3 5 4 5 5 5 5 4
8 8 9 11 10 10 9 9 9 9 8 8 8 7 7 7 6 4 6 7 5 4 6 5 4 5 3 3 3 4 2 1 0 3 4 2 3 5 6 6 6 7
7 7 9 7 7 6 6 8 11 11 9 7 6 7 8 8 8 7 7 7 6 6 4 4 3 3 2 3 3 4 3 3 3 3 3 2 2 4 6 8 7 7
6 6 5 4 4 6 6 5 4 10 10 8 7 8 8 8 7 7 6 5 5 5 5 6 6 4 3 3 4 4 2 4 3 4 3 2 3 4 4 5 9 9
6 5 5 4 4 3 4 5 5 4 12 11 10 9 7 7 9 9 9 8 7 6 7 6 5 4 4 4 6 3 4 3 3 1 1 1 2 3 5 6 7 7
4 4 4 4 2 0 3 3 3 4 2 3 6 8 6 4 4 9 11 10 9 8 6 5 3 5 8 7 5 3 3 4 3 2 3 3 4 4 4 6 7 6
8 14 12 7 6 7 6 3 2 2 3 3 2 3 1 2 3 3 3 4 7 9 7 6 5 7 7 7 6 6 5 2 3 4 4 5 5 5 5 4 4 6
7 3 5 6 5 6 3 5 5 5 5 6 5 2 1 2 2 2 3 3 4 3 7 7 6 8 7 7 6 7 7 5 3 3 5 5 5 4 4 5 3 3
6 4 3 3 5 7 5 1 3 1 2 2 4 6 4 2 3 4 3 2 2 7 9 8 6 8 7 7 6 5 5 4 3 4 4 5 5 7 5 8 6 6
5 7 5 5 4 7 3 1 4 1 1 0 1 3 8 9 9 6 6 8 9 9 8 8 6 10 8 8 8 6 6 2 3 4 5 5 2 7 6 7 7 6
8 7 8 6 7 7 5 5 5 4 4 4 3 4 8 5 2 3 4 5 6 9 8 7 6 10 8 10 10 9 7 3 1 2 3 4 7 6 8 7 8 7
9 8 10 10 8 7 5 4 5 5 2 3 3 6 7 4 2 2 0 5 8 8 9 7 6 9 10 10 10 11 6 2 2 2 3 5 7 7 7 8 7 8
7 6 8 8 7 3 1 3 1 3 4 3 3 6 9 7 4 3 4 5 7 8 8 8 6 8 11 11 11 12 7 3 2 3 3 6 5 5 5 6 10 14
4 4 2 4 4 5 6 3 4 5 5 5 6 8 9 7 6 6 7 8 8 8 13 10 7 8 12 13 14 13 9 4 3 3 4 5 4 4 3 5 6 10
3 3 5 6 8 8 6 4 3 6 7 6 7 6 7 7 7 7 8 7 8 7 7 8 8 7 9 15 15 16 13 7 6 5 6 6 5 4 3 5 5 5
Wind_Direction
166 191 168 191 181 163 167 168 175 180 188 166 176 187 173 181 211 157 185 157 176 173 162 158 168 167 182 171 158 144 143 216 138 236 202 26 273 281 279 85 242 209
193 182 171 183 163 137 172 180 184 175 185 182 177 163 161 173 168 175 154 154 170 178 158 169 176 187 197 170 180 192 169 222 207 180 234 165 240 280 282 285 323 53
183 174 182 184 175 173 184 190 192 166 187 186 151 146 162 181 169 166 158 168 180 175 164 168 179 184 196 178 164 190 197 178 258 231 154 101 271 45 295 300 260 198
178 181 184 181 183 182 181 184 178 183 183 175 177 168 194 174 168 166 164 187 182 185 167 184 181 182 189 186 164 211 203 177 226 265 111 272 255 266 254 201 269 292
182 193 188 190 178 193 180 177 183 189 193 172 188 169 186 137 167 167 169 186 183 197 161 184 188 191 173 188 165 220 210 184 202 171 191 237 254 240 259 249 238 280
184 190 188 197 156 207 179 188 195 179 204 169 194 162 177 171 181 178 180 180 186 206 182 188 186 202 177 181 187 203 233 223 177 167 188 217 259 263 268 22 319 341
187 187 193 196 174 197 197 182 190 189 190 185 189 170 182 172 197 190 185 182 192 192 207 173 185 197 182 167 177 188 248 279 334 216 195 222 219 263 288 204 223 203
186 190 194 195 196 188 204 184 189 194 188 196 181 179 185 183 191 194 193 189 199 185 213 172 165 193 204 183 175 196 207 210 212 177 227 237 276 279 230 281 302 234
190 186 194 193 203 186 201 186 188 195 198 206 195 184 193 194 178 197 177 182 204 171 202 131 163 203 212 210 191 192 206 241 233 186 200 220 222 218 244 249 252 255
194 196 192 195 201 192 202 187 189 190 189 204 200 204 196 155 200 232 174 171 197 158 175 163 170 205 215 214 197 194 217 216 249 300 277 230 225 240 242 230 230 226
192 197 197 199 201 197 206 187 180 198 190 207 185 175 263 185 188 197 152 169 196 182 191 192 191 199 207 222 204 193 208 223 224 204 235 254 260 252 256 251 255 259
192 197 200 200 202 202 198 204 172 184 190 208 202 168 191 255 203 178 183 185 209 189 195 197 206 207 199 225 218 207 212 227 223 251 242 245 247 249 238 237 241 235
195 196 203 201 199 208 199 191 173 190 188 197 201 184 182 207 235 211 173 193 187 210 206 201 210 213 203 200 220 226 193 104 291 267 257 284 279 281 282 270 257 245
208 200 206 206 190 200 226 200 180 172 191 199 190 210 199 198 212 214 196 182 191 208 197 202 206 226 200 196 211 232 180 185 191 241 255 251 290 288 284 271 255 250
206 205 208 222 202 181 213 244 206 163 173 185 189 204 209 194 194 216 229 203 201 196 191 197 196 205 200 220 211 217 220 224 199 219 238 229 253 275 282 304 293 288
196 197 199 214 241 184 187 229 266 223 175 179 187 199 210 196 180 179 204 207 198 193 205 197 195 196 2 257 216 191 215 237 226 166 244 281 265 279 291 285 286 292
202 194 176 205 216 235 172 213 247 325 322 184 185 195 208 203 202 187 188 200 192 194 187 203 100 47 5 20 26 309 244 213 218 178 201 229 241 241 271 288 280 268
9 349 348 360 11 7 2 8 353 1 345 343 281 216 108 260 209 253 247 228 190 175 179 104 82 40 30 18 23 26 6 303 232 224 212 218 248 253 256 269 283 293
61 41 40 31 7 303 335 11 18 21 16 359 346 340 308 224 270 225 234 257 260 181 114 84 74 27 26 29 24 26 13 341 264 265 284 275 259 259 245 239 273 325
100 114 161 199 215 236 234 7 300 356 348 359 346 335 323 306 255 307 289 260 279 78 92 75 66 17 8 22 27 21 4 346 287 268 265 278 287 292 360 53 46 39
153 167 180 152 200 241 250 175 271 319 231 229 24 38 41 26 25 358 348 23 32 66 65 68 46 15 18 9 9 353 346 325 306 292 288 280 331 48 62 58 54 63
191 182 187 189 198 208 207 196 213 202 215 186 138 96 87 85 37 351 358 41 66 90 95 68 44 16 17 21 3 352 323 258 240 286 290 308 57 50 56 48 47 47
207 180 173 181 197 199 199 216 214 181 142 67 94 135 118 110 62 68 128 126 110 100 95 83 55 18 29 27 19 358 342 348 332 358 22 52 62 67 56 57 54 53
204 179 176 169 178 158 206 227 202 42 51 52 48 108 136 167 144 89 42 50 85 96 95 89 69 32 32 35 27 13 346 341 312 61 67 78 71 70 85 69 58 58
193 244 177 161 166 173 220 205 137 102 83 77 85 94 117 135 133 88 77 65 63 74 83 80 70 42 33 39 36 26 12 329 32 73 69 73 76 77 81 98 76 56
141 90 106 94 104 96 85 68 81 95 96 89 74 90 117 122 111 91 79 69 64 64 66 68 68 51 38 44 41 36 24 37 29 69 82 73 55 68 113 115 94 85